Showing default

COSMOS 1639, 15621

Orbit data source: Space-Track

COSMOS 1639, 15621 is a payload satellite owned by GUKOS (CIS) in LEO that was launched on Thu, 21 Mar 1985 UTC via a KOSMOS 11K65M launch vehicle from the Plesetsk Missile And Space Complex (PKMTR). Payload-class satellites include a variety of spacecraft equipped with specific instruments for various scientific and technological missions. These include communications satellites like Starlink; space stations such as the ISS; scientific satellites like the Hubble; Earth observation satellites from companies like Planet Labs, Umbra, and HawkEye 360; GPS; miniature CubeSats for education and research; and military/defense satellites.

Loading next visibility...
Identifier
15621, 1985-023E
Orbit
LEO
Country
Flag of CISCIS
Related business
Manufacturer
NPO PM
Mission
Spacecraft
Bus & Motor
STRELA-1 11F625, Unknown motor
Mass
60 kg wet, 60 kg dry
Launch date (UTC)
1985-03-21 (41 years ago)
Launch vehicle
KOSMOS 11K65M
Launch site
Plesetsk Missile And Space Complex (PKMTR)
Object type
Payload
Rocket body
Debris
Shape & HBR
Unknown
Radar Cross Section
Medium (>0.1 m² and <1 m²)

Expand to show TLE details & history
Last TLE update: 15 hours ago

TLE from 15 hours ago
0 COSMOS 1639
1 15621U 85023E   25348.98874054 -.00000001  00000-0  97046-4 0  9992
2 15621  74.0534 212.3790 0025154 352.2918  73.5708 12.51055078860470
Epoch: 2025-12-14T23:43Z
TLE epoch observation values (Epoch: 2025-12-14T23:43:47.182Z)
Latitude
61.65745°
Longitude
164.35016°
Altitude
1,464.732 km
Speed
7.139 km/s
True Right ascension
16h 16m 45s
True Declination
61° 31' 35"
Sunlit
Object was in daylight at epoch
Visualization orbit readout
Latitude
Unknown
Longitude
Unknown
Altitude
Unknown
Speed
Unknown
Apparent Right ascension
Unknown
Apparent Declination
Unknown
Sunlit
N/A
Visualization observer readout
Local Sidereal Time
13:24:34
Azimuth
Unknown
Elevation
Unknown
Doppler factor
Unknown
Orbital elements
Apogee altitude
1,477.628 km
Perigee altitude
1,438.206 km
Semi-major axis
7,836.054 km
Eccentricity
0.00252
Inclination
74.0534°
RAAN
212.379°
Arg. of periapsis
352.2918°
True anomaly
73.84752°
Mean anomaly
73.5708°
Eccentric anomaly
73.70914°
Mean motion
3.12894 °/min
Orbital period
115.05 mins
BSTAR
0.000097046
Loading maneuver chart data...
Computing Atmospheric mass density...
Loading historical data...
Loading historical data...
Loading historical data...
Loading historical data...
Loading historical data...
Loading historical data...
Loading historical data...

Documentation

Showing up to 5 results
|